Tracking 21607 objects as of 26-Oct-2020
HD Live streaming from Space Station
objects crossing your sky now

COSMOS 621

Track COSMOS 621 now!
10-day predictions
COSMOS 621 is classified as:


NORAD ID: 6989
Int'l Code: 1973-104E
Perigee: 1,413.6 km
Apogee: 1,491.0 km
Inclination: 74.0 °
Period: 114.8 minutes
Semi major axis: 7823 km
RCS: 0.7035 m2 (medium)
Launch date: December 19, 1973
Source: Commonwealth of Independent States (former USSR) (CIS)
Launch site: PLESETSK MISSILE AND SPACE COMPLEX (PKMTR)
aabbcc
Your satellite tracking list
Your tracking list is empty




NASA's NSSDC Master Catalog

Two Line Element Set (TLE):
1  6989U 73104E   20299.54203038 -.00000015  00000-0  39951-5 0  9993
2  6989  74.0299 348.5479 0049437  89.3683  76.2344 12.54634954146043
Source of the keplerian elements: AFSPC